FW5278 Weather Reports


time (UTC)temp
C
wind
direction
speed
KPH
gust
KPH
rain 1hr
cm
rain 24hr
cm
rain mn
cm
humidity
%
barometer
mb
20260507110057 11 295 1.6 3.2 0.00 0.00 0.00 76 1021.3
20260507105555 11 0 0.0 1.6 0.00 0.00 0.00 76 1021.1
20260507105054 11 0 0.0 1.6 0.00 0.00 0.00 77 1021.2
20260507104556 11 274 0.0 3.2 0.00 0.00 0.00 77 1021.3
20260507104054 12 0 0.0 3.2 0.00 0.00 0.00 77 1021.3
20260507103553 12 0 0.0 4.8 0.00 0.00 0.00 76 1021.3
20260507103054 12 0 0.0 4.8 0.00 0.00 0.00 77 1021.4
20260507102554 12 290 1.6 4.8 0.00 0.00 0.00 77 1021.4
20260507102054 12 0 0.0 4.8 0.00 0.00 0.00 76 1021.5
20260507101604 12 299 0.0 4.8 0.00 0.00 0.00 76 1021.5
20260507101054 12 167 0.0 3.2 0.00 0.00 0.00 77 1021.5
20260507100553 12 0 0.0 3.2 0.00 0.00 0.00 77 1021.5
20260507100058 12 300 0.0 4.8 0.00 0.00 0.00 77 1021.6
20260507095555 12 0 0.0 4.8 0.00 0.00 0.00 77 1021.5
20260507095056 12 299 0.0 3.2 0.00 0.00 0.00 77 1021.6
20260507094557 12 306 0.0 3.2 0.00 0.00 0.00 77 1021.7
20260507094053 12 0 0.0 4.8 0.00 0.00 0.00 76 1021.6
20260507093553 12 316 1.6 8.0 0.00 0.00 0.00 76 1021.7
20260507093057 12 0 0.0 8.0 0.00 0.00 0.00 76 1021.8
20260507092553 12 286 1.6 8.0 0.00 0.00 0.00 76 1021.8
20260507092054 12 298 0.0 9.7 0.00 0.00 0.00 76 1021.8
20260507091559 12 295 1.6 9.7 0.00 0.00 0.00 76 1021.9
20260507091054 12 283 1.6 6.4 0.00 0.00 0.00 76 1021.9
20260507090554 12 275 1.6 6.4 0.00 0.00 0.00 75 1021.9
20260507090056 12 328 3.2 9.7 0.00 0.00 0.00 75 1021.9
20260507085555 12 316 1.6 9.7 0.00 0.00 0.00 75 1022.0
20260507085054 12 269 4.8 9.7 0.00 0.00 0.00 75 1021.9
20260507084555 12 309 0.0 3.2 0.00 0.00 0.00 75 1021.9
20260507084057 12 0 0.0 6.4 0.00 0.00 0.00 75 1021.8
20260507083554 12 0 0.0 6.4 0.00 0.00 0.00 75 1021.9
20260507083056 12 290 1.6 8.0 0.00 0.00 0.00 75 1021.9
20260507082553 12 302 1.6 9.7 0.00 0.00 0.00 75 1022.0
20260507082056 12 297 1.6 9.7 0.00 0.00 0.00 75 1021.9
20260507081602 12 305 1.6 9.7 0.00 0.00 0.00 75 1022.0
20260507081053 12 312 1.6 8.0 0.00 0.00 0.00 76 1021.9
20260507080554 12 307 3.2 11.3 0.00 0.00 0.00 76 1021.9
20260507080052 12 0 3.2 11.3 0.00 0.00 0.00 76 1021.9
20260507075553 12 337 1.6 8.0 0.00 0.00 0.00 76 1021.9
20260507075053 12 0 1.6 8.0 0.00 0.00 0.00 77 1021.9
20260507074605 12 319 1.6 11.3 0.00 0.00 0.00 77 1021.9
20260507074054 12 281 1.6 11.3 0.00 0.00 0.00 77 1022.0
20260507073554 12 247 1.6 8.0 0.00 0.00 0.00 77 1021.9
20260507073055 12 285 1.6 8.0 0.00 0.00 0.00 77 1021.9
20260507072553 12 0 0.0 4.8 0.00 0.00 0.00 78 1021.9
20260507072054 12 0 0.0 6.4 0.00 0.00 0.00 78 1021.8
20260507071556 12 252 0.0 6.4 0.00 0.00 0.00 77 1021.7
20260507071053 12 0 0.0 6.4 0.00 0.00 0.00 78 1021.7
20260507070554 12 242 1.6 6.4 0.00 0.00 0.00 77 1021.6
20260507070054 12 245 0.0 8.0 0.00 0.00 0.00 77 1021.7
20260507065554 12 0 1.6 8.0 0.00 0.00 0.00 77 1021.6
20260507065053 12 296 3.2 8.0 0.00 0.00 0.00 77 1021.7
20260507064555 12 165 3.2 8.0 0.00 0.00 0.00 77 1021.7
20260507064052 12 299 1.6 8.0 0.00 0.00 0.00 77 1021.7
20260507063553 12 311 3.2 8.0 0.00 0.00 0.00 77 1021.7
20260507063058 12 285 1.6 6.4 0.00 0.00 0.00 77 1021.7
20260507062551 12 274 0.0 6.4 0.00 0.00 0.00 77 1021.8
20260507062054 12 302 3.2 8.0 0.00 0.00 0.00 77 1021.8
20260507061555 12 213 0.0 8.0 0.00 0.00 0.00 77 1021.7
20260507061054 12 317 1.6 12.9 0.00 0.00 0.00 78 1021.8
20260507060554 12 311 3.2 12.9 0.00 0.00 0.00 78 1021.9
20260507060057 13 305 1.6 8.0 0.00 0.00 0.00 78 1021.7
20260507055551 13 288 3.2 8.0 0.00 0.00 0.00 78 1021.7
20260507055053 13 303 1.6 6.4 0.00 0.00 0.00 78 1021.8
20260507054633 13 305 3.2 6.4 0.00 0.00 0.00 78 1021.7
20260507054054 13 290 1.6 6.4 0.00 0.00 0.00 78 1021.8
20260507053554 13 328 1.6 8.0 0.00 0.00 0.00 78 1021.7
20260507053055 13 295 0.0 9.7 0.00 0.00 0.00 78 1021.7
20260507052552 13 0 1.6 9.7 0.00 0.00 0.00 78 1021.7
20260507052051 13 302 1.6 9.7 0.00 0.00 0.00 77 1021.7
20260507051553 13 300 3.2 12.9 0.00 0.00 0.00 77 1021.6
20260507051054 13 292 1.6 12.9 0.00 0.00 0.00 77 1021.7
20260507050553 13 316 3.2 9.7 0.00 0.00 0.00 77 1021.6
20260507050058 13 221 3.2 8.0 0.00 0.00 0.00 77 1021.7
20260507045555 13 304 3.2 8.0 0.00 0.00 0.00 77 1021.6
20260507045054 13 323 1.6 12.9 0.00 0.00 0.00 76 1021.7
20260507044601 13 87 1.6 12.9 0.00 0.00 0.00 76 1021.8
20260507044051 13 311 3.2 11.3 0.00 0.00 0.00 76 1021.7
20260507043553 13 102 1.6 11.3 0.00 0.00 0.00 76 1021.7
20260507043055 13 316 4.8 11.3 0.00 0.00 0.00 76 1021.6
20260507042554 13 328 3.2 11.3 0.00 0.00 0.00 76 1021.6
20260507042053 13 314 1.6 11.3 0.00 0.00 0.00 76 1021.5
20260507041602 14 304 4.8 11.3 0.00 0.00 0.00 75 1021.5
20260507041055 14 354 1.6 11.3 0.00 0.00 0.00 75 1021.5
20260507040555 14 240 3.2 11.3 0.00 0.00 0.00 75 1021.5
20260507040054 14 242 1.6 9.7 0.00 0.00 0.00 75 1021.3
20260507035553 14 295 1.6 11.3 0.00 0.00 0.00 75 1021.3
20260507035055 14 308 1.6 16.1 0.00 0.00 0.00 75 1021.3
20260507034600 15 291 6.4 16.1 0.00 0.00 0.00 74 1021.1
20260507034054 15 311 1.6 9.7 0.00 0.00 0.00 74 1021.1
20260507033553 15 286 1.6 12.9 0.00 0.00 0.00 74 1021.0
20260507033101 15 309 3.2 12.9 0.00 0.00 0.00 74 1021.0
20260507032554 15 295 4.8 11.3 0.00 0.00 0.00 74 1020.9
20260507032053 15 297 6.4 11.3 0.00 0.00 0.00 74 1020.9
20260507031605 15 90 3.2 11.3 0.00 0.00 0.00 73 1020.8
20260507031053 15 168 1.6 11.3 0.00 0.00 0.00 74 1020.7
20260507030553 15 152 3.2 9.7 0.00 0.00 0.00 74 1020.7
20260507030059 15 288 1.6 11.3 0.00 0.00 0.00 74 1020.5
20260507025556 16 278 1.6 11.3 0.00 0.00 0.00 73 1020.6
20260507025053 16 236 4.8 9.7 0.00 0.00 0.00 73 1020.5
20260507024555 16 97 4.8 9.7 0.00 0.00 0.00 73 1020.4
20260507024053 16 290 3.2 9.7 0.00 0.00 0.00 72 1020.3
20260507023552 16 102 3.2 11.3 0.00 0.00 0.00 72 1020.4
20260507023104 16 290 1.6 11.3 0.00 0.00 0.00 72 1020.3
20260507022552 16 92 3.2 9.7 0.00 0.00 0.00 72 1020.4
20260507022054 16 314 1.6 8.0 0.00 0.00 0.00 72 1020.4
20260507021555 16 307 1.6 11.3 0.00 0.00 0.00 72 1020.3
20260507021057 16 244 3.2 11.3 0.00 0.00 0.00 72 1020.3
20260507020553 16 285 3.2 11.3 0.00 0.00 0.00 72 1020.4
20260507020056 16 288 3.2 12.9 0.00 0.00 0.00 72 1020.3
20260507015553 16 298 6.4 12.9 0.00 0.00 0.00 71 1020.4
20260507015053 17 299 4.8 11.3 0.00 0.00 0.00 70 1020.4
20260507014604 17 0 3.2 11.3 0.00 0.00 0.00 70 1020.5
20260507014053 17 316 3.2 11.3 0.00 0.00 0.00 70 1020.5
20260507013552 17 256 4.8 11.3 0.00 0.00 0.00 69 1020.4
20260507013056 17 104 1.6 9.7 0.00 0.00 0.00 70 1020.5
20260507012555 17 266 3.2 11.3 0.00 0.00 0.00 69 1020.5
20260507012056 17 308 1.6 11.3 0.00 0.00 0.00 69 1020.5
20260507011555 18 327 3.2 20.9 0.00 0.00 0.00 69 1020.4
20260507011057 18 280 6.4 20.9 0.00 0.00 0.00 68 1020.5
20260507010551 18 97 3.2 12.9 0.00 0.00 0.00 68 1020.3
20260507010059 18 250 4.8 12.9 0.00 0.00 0.00 67 1020.4
20260507005553 18 23 1.6 12.9 0.00 0.00 0.00 66 1020.4
20260507005052 19 297 3.2 12.9 0.00 0.00 0.00 66 1020.4
20260507004553 19 340 3.2 11.3 0.00 0.00 0.00 65 1020.4
20260507004053 19 293 3.2 11.3 0.00 0.00 0.00 66 1020.3
20260507003551 19 203 1.6 16.1 0.00 0.00 0.00 67 1020.3
20260507003054 19 334 3.2 16.1 0.00 0.00 0.00 67 1020.2
20260507002551 19 335 4.8 11.3 0.00 0.00 0.00 67 1020.2
20260507002051 19 321 3.2 9.7 0.00 0.00 0.00 67 1020.2
20260507001605 20 266 3.2 9.7 0.00 0.00 0.00 66 1020.2
20260507001053 20 307 1.6 8.0 0.00 0.00 0.00 67 1020.1
20260507000552 20 288 1.6 11.3 0.00 0.00 0.00 67 1020.2
20260507000057 20 230 1.6 11.3 0.00 0.00 0.00 68 1020.1
20260506235555 20 310 1.6 12.9 0.00 0.00 0.00 66 1020.1
20260506235055 20 300 1.6 12.9 0.00 0.00 0.00 67 1020.1
20260506234557 20 243 3.2 12.9 0.00 0.00 0.00 66 1020.1
20260506234053 20 312 3.2 6.4 0.00 0.00 0.00 65 1020.0
20260506233552 20 127 0.0 3.2 0.00 0.00 0.00 65 1019.9
20260506233119 20 38 1.6 8.0 0.00 0.00 0.00 65 1020.1
20260506232551 21 275 3.2 8.0 0.00 0.00 0.00 64 1020.0
20260506232053 21 239 0.0 3.2 0.00 0.00 0.00 64 1020.1
20260506231555 21 0 0.0 8.0 0.00 0.00 0.00 64 1020.2
20260506231051 21 314 1.6 8.0 0.00 0.00 0.00 63 1020.2
20260506230550 21 298 0.0 3.2 0.00 0.00 0.00 64 1020.2
20260506230057 21 341 0.0 3.2 0.00 0.00 0.00 64 1020.2
20260506225553 20 51 0.0 3.2 0.00 0.00 0.00 65 1020.3
20260506225051 21 86 0.0 3.2 0.00 0.00 0.00 64 1020.4
20260506224556 20 74 0.0 3.2 0.00 0.00 0.00 65 1020.3
20260506224054 20 0 0.0 4.8 0.00 0.00 0.00 66 1020.4
20260506223557 20 112 0.0 4.8 0.00 0.00 0.00 66 1020.5
20260506223055 20 83 1.6 4.8 0.00 0.00 0.00 67 1020.5
20260506222551 20 76 0.0 3.2 0.00 0.00 0.00 68 1020.5
20260506222054 19 108 0.0 1.6 0.00 0.00 0.00 69 1020.6
20260506221559 19 89 0.0 4.8 0.00 0.00 0.00 69 1020.6
20260506221050 19 0 1.6 4.8 0.00 0.00 0.00 68 1020.6
20260506220551 20 68 1.6 6.4 0.00 0.00 0.00 66 1020.6
20260506220055 20 205 0.0 6.4 0.00 0.00 0.00 67 1020.6
20260506215551 20 212 0.0 9.7 0.00 0.00 0.00 67 1020.7
20260506215051 20 63 1.6 9.7 0.00 0.00 0.00 68 1020.6
20260506214554 20 68 1.6 8.0 0.00 0.00 0.00 69 1020.5
20260506214050 20 72 3.2 8.0 0.00 0.00 0.00 67 1020.5
20260506213552 20 172 3.2 8.0 0.00 0.00 0.00 68 1020.5
20260506213112 20 220 1.6 4.8 0.00 0.00 0.00 68 1020.5
20260506212551 20 311 1.6 3.2 0.00 0.00 0.00 68 1020.7
20260506212053 19 63 1.6 3.2 0.00 0.00 0.00 70 1020.6
20260506211554 19 1 0.0 4.8 0.00 0.00 0.00 69 1020.8
20260506211054 19 234 0.0 4.8 0.00 0.00 0.00 70 1020.9
20260506210554 19 82 0.0 3.2 0.00 0.00 0.00 69 1020.9
20260506210057 19 203 0.0 3.2 0.00 0.00 0.00 69 1021.1
20260506205554 18 306 1.6 3.2 0.00 0.00 0.00 69 1021.0
20260506205051 18 120 0.0 6.4 0.00 0.00 0.00 70 1020.9
20260506204555 18 0 0.0 6.4 0.00 0.00 0.00 71 1021.0
20260506204054 18 103 3.2 6.4 0.00 0.00 0.00 69 1021.0
20260506203557 18 0 0.0 6.4 0.00 0.00 0.00 70 1020.9
20260506203055 18 46 1.6 6.4 0.00 0.00 0.00 69 1020.9
20260506202553 18 186 1.6 4.8 0.00 0.00 0.00 71 1020.9
20260506202052 19 202 1.6 4.8 0.00 0.00 0.00 70 1020.8
20260506201554 19 91 0.0 3.2 0.00 0.00 0.00 69 1020.9
20260506201053 18 0 0.0 4.8 0.00 0.00 0.00 72 1021.0
20260506200550 18 260 1.6 4.8 0.00 0.00 0.00 73 1021.0
20260506200054 17 118 0.0 3.2 0.00 0.00 0.00 75 1021.1
20260506195551 17 289 0.0 3.2 0.00 0.00 0.00 76 1021.1
20260506195055 16 275 0.0 8.0 0.00 0.00 0.00 75 1021.1
20260506194634 16 86 1.6 8.0 0.00 0.00 0.00 75 1021.4
20260506194054 17 315 1.6 8.0 0.00 0.00 0.00 75 1021.4
20260506193550 17 10 1.6 6.4 0.00 0.00 0.00 75 1021.4
20260506193103 17 91 0.0 3.2 0.00 0.00 0.00 74 1021.4
20260506192609 17 311 1.6 3.2 0.00 0.00 0.00 74 1021.4
20260506192053 17 314 0.0 3.2 0.00 0.00 0.00 74 1021.4
20260506191555 17 214 3.2 3.2 0.00 0.00 0.00 75 1021.2
20260506191054 17 187 0.0 3.2 0.00 0.00 0.00 77 1021.3
20260506190554 16 94 1.6 3.2 0.00 0.00 0.00 75 1021.3
20260506190057 17 214 0.0 4.8 0.00 0.00 0.00 76 1021.3
20260506185551 17 77 0.0 4.8 0.00 0.00 0.00 76 1021.3
20260506185051 16 198 1.6 4.8 0.00 0.00 0.00 76 1021.2
20260506184555 16 178 1.6 4.8 0.00 0.00 0.00 77 1021.2
20260506184051 16 193 1.6 4.8 0.00 0.00 0.00 77 1021.3
20260506183552 16 0 0.0 1.6 0.00 0.00 0.00 77 1021.2
20260506183054 16 210 0.0 4.8 0.00 0.00 0.00 78 1021.1
20260506182551 16 0 1.6 4.8 0.00 0.00 0.00 78 1021.2
20260506182050 16 263 0.0 3.2 0.00 0.00 0.00 78 1021.3
20260506181554 16 309 0.0 3.2 0.00 0.00 0.00 79 1021.3
20260506181051 15 323 0.0 1.6 0.00 0.00 0.00 79 1021.3
20260506180554 15 50 0.0 4.8 0.00 0.00 0.00 80 1021.3
20260506180104 15 287 0.0 4.8 0.00 0.00 0.00 79 1021.1
20260506175553 15 0 0.0 4.8 0.00 0.00 0.00 80 1021.1
20260506175056 15 85 0.0 1.6 0.00 0.00 0.00 79 1021.4
20260506174556 15 86 0.0 1.6 0.00 0.00 0.00 79 1021.3
20260506174053 15 0 0.0 1.6 0.00 0.00 0.00 79 1021.2
20260506173553 15 92 0.0 1.6 0.00 0.00 0.00 80 1021.3
20260506173058 15 0 0.0 3.2 0.00 0.00 0.00 80 1021.1
20260506172557 15 0 0.0 3.2 0.00 0.00 0.00 79 1021.0
20260506172052 15 220 0.0 1.6 0.00 0.00 0.00 79 1020.9
20260506171558 15 251 0.0 1.6 0.00 0.00 0.00 79 1021.0
20260506171054 15 304 0.0 1.6 0.00 0.00 0.00 79 1021.1
20260506170552 15 0 0.0 1.6 0.00 0.00 0.00 79 1020.8
20260506170106 15 0 0.0 3.2 0.00 0.00 0.00 79 1020.9
20260506165551 15 0 0.0 3.2 0.00 0.00 0.00 80 1021.1
20260506165051 15 0 0.0 3.2 0.00 0.00 0.00 79 1021.1
20260506164602 15 308 0.0 1.6 0.00 0.00 0.00 80 1021.0
20260506164053 15 0 0.0 3.2 0.00 0.00 0.00 80 1021.0
20260506163550 15 170 0.0 6.4 0.00 0.00 0.00 80 1021.0
20260506163114 15 288 0.0 6.4 0.00 0.00 0.00 80 1021.0
20260506162550 15 297 1.6 6.4 0.00 0.00 0.00 79 1021.1
20260506162053 15 0 0.0 1.6 0.00 0.00 0.00 80 1020.8
20260506161602 14 226 0.0 1.6 0.00 0.00 0.00 81 1020.9
20260506161053 14 0 0.0 0.0 0.00 0.00 0.00 82 1020.8
20260506160550 14 0 0.0 1.6 0.00 0.00 0.00 82 1020.8
20260506160056 14 0 0.0 1.6 0.00 0.00 0.00 83 1020.8
20260506155556 13 0 0.0 4.8 0.00 0.00 0.00 82 1020.6
20260506155056 13 0 0.0 6.4 0.00 0.00 0.00 83 1020.4
20260506154610 13 88 0.0 6.4 0.00 0.00 0.00 83 1020.4
20260506154053 13 100 1.6 6.4 0.00 0.00 0.00 83 1020.3
20260506153553 13 0 0.0 1.6 0.00 0.00 0.00 84 1020.3
20260506153102 13 0 0.0 6.4 0.00 0.00 0.00 84 1020.5
20260506152551 13 141 0.0 6.4 0.00 0.00 0.00 84 1020.9
20260506152053 13 95 1.6 4.8 0.00 0.00 0.00 84 1021.0
20260506151559 13 307 0.0 4.8 0.00 0.00 0.00 84 1021.1
20260506151050 13 0 1.6 4.8 0.00 0.00 0.00 84 1021.1
20260506150551 13 311 0.0 4.8 0.00 0.00 0.00 84 1021.1
20260506150100 13 0 0.0 6.4 0.00 0.00 0.00 84 1021.0
20260506145551 13 307 1.6 6.4 0.00 0.00 0.00 84 1021.0
20260506145053 13 302 1.6 4.8 0.00 0.00 0.00 84 1020.9
20260506144556 13 300 0.0 4.8 0.00 0.00 0.00 84 1020.7
20260506144053 13 0 0.0 4.8 0.00 0.00 0.00 84 1020.8
20260506143550 13 300 3.2 4.8 0.00 0.00 0.00 84 1020.8
20260506143105 13 0 1.6 4.8 0.00 0.00 0.00 84 1020.6
20260506142554 13 286 1.6 4.8 0.00 0.00 0.00 84 1020.5
20260506142052 13 290 0.0 3.2 0.00 0.00 0.00 84 1020.3
20260506141552 13 261 0.0 3.2 0.00 0.00 0.00 84 1020.2
20260506141055 13 107 0.0 3.2 0.00 0.00 0.00 84 1020.2
20260506140552 13 0 0.0 1.6 0.00 0.00 0.00 84 1020.2
20260506140057 13 0 0.0 1.6 0.00 0.00 0.00 84 1020.1
20260506135552 13 0 0.0 1.6 0.00 0.00 0.00 85 1020.2
20260506135050 13 0 0.0 1.6 0.00 0.00 0.00 85 1020.2
20260506134556 13 0 0.0 1.6 0.00 0.00 0.00 85 1020.2
20260506134052 13 0 0.0 1.6 0.00 0.00 0.00 85 1020.1
20260506133552 13 0 0.0 1.6 0.00 0.00 0.00 85 1020.1
20260506133055 13 290 0.0 1.6 0.00 0.00 0.00 85 1020.1
20260506132550 13 0 0.0 0.0 0.00 0.00 0.00 85 1020.0
20260506132054 13 0 0.0 0.0 0.00 0.00 0.00 85 1020.0
20260506131604 13 0 0.0 0.0 0.00 0.00 0.00 85 1019.9
20260506131050 13 0 0.0 0.0 0.00 0.00 0.00 85 1019.8
20260506130552 13 0 0.0 0.0 0.00 0.00 0.00 85 1019.8
20260506130054 13 0 0.0 0.0 0.00 0.00 0.00 85 1019.7
20260506125552 13 0 0.0 0.0 0.00 0.00 0.00 85 1019.7
20260506125054 13 0 0.0 0.0 0.00 0.00 0.00 85 1019.7
20260506124555 13 0 0.0 0.0 0.00 0.00 0.00 85 1019.6
20260506124052 13 0 0.0 0.0 0.00 0.00 0.00 85 1019.6
20260506123553 13 0 0.0 3.2 0.00 0.00 0.00 85 1019.6
20260506123054 13 0 0.0 3.2 0.00 0.00 0.00 84 1019.6
20260506122553 13 0 0.0 4.8 0.00 0.00 0.00 85 1019.6
20260506122053 13 0 0.0 8.0 0.00 0.00 0.00 84 1019.6
20260506121555 13 295 0.0 8.0 0.00 0.00 0.00 84 1019.6
20260506121052 13 295 1.6 8.0 0.00 0.00 0.00 84 1019.7
20260506120553 13 297 0.0 6.4 0.00 0.00 0.00 84 1019.6
20260506120059 13 0 0.0 6.4 0.00 0.00 0.00 84 1019.6
20260506115551 13 298 1.6 6.4 0.00 0.00 0.00 84 1019.6
20260506115051 13 0 0.0 3.2 0.00 0.00 0.00 84 1019.5
20260506114604 13 251 0.0 4.8 0.00 0.00 0.00 84 1019.5
20260506114054 13 304 0.0 4.8 0.00 0.00 0.00 84 1019.3
20260506113550 13 0 0.0 4.8 0.00 0.00 0.00 84 1019.3
20260506113054 13 0 1.6 6.4 0.00 0.00 0.00 84 1019.3
20260506112551 13 0 0.0 6.4 0.00 0.00 0.00 83 1019.3
20260506112054 13 300 1.6 6.4 0.00 0.00 0.00 83 1019.3
20260506111557 13 316 0.0 4.8 0.00 0.00 0.00 83 1019.2
20260506111053 13 297 0.0 6.4 0.00 0.00 0.00 83 1019.2
20260506110553 13 311 1.6 6.4 0.00 0.00 0.00 83 1019.1